FW8481 Weather Reports


Display with metric or nautical units.
time (UTC)temp
F
wind
direction
speed
MPH
gust
MPH
rain 1hr
in
rain 24hr
in
rain mn
in
humidity
%
barometer
mb
20230201023518 19 0 0.0 2.0 0.00 0.00 0.00 71 1017.3
20230201023021 19 0 0.0 2.0 0.00 0.00 0.00 71 1017.3
20230201022517 19 258 1.0 2.0 0.00 0.00 0.00 71 1017.2
20230201022019 19 270 0.0 2.0 0.00 0.00 0.00 70 1017.2
20230201021522 20 68 1.0 2.0 0.00 0.00 0.00 69 1017.2
20230201021017 20 0 0.0 2.0 0.00 0.00 0.00 69 1016.8
20230201020519 20 0 0.0 2.0 0.00 0.00 0.00 68 1016.9
20230201020022 20 360 0.0 1.0 0.00 0.00 0.00 68 1016.8
20230201015521 21 0 0.0 2.0 0.00 0.00 0.00 67 1016.8
20230201015023 21 58 0.0 2.0 0.00 0.00 0.00 67 1016.7
20230201014524 21 42 1.0 2.0 0.00 0.00 0.00 67 1016.8
20230201014020 22 216 0.0 1.0 0.00 0.00 0.00 67 1016.7
20230201013522 22 0 0.0 1.0 0.00 0.00 0.00 67 1016.6
20230201013038 22 215 1.0 3.0 0.00 0.00 0.00 67 1016.5
20230201012518 22 0 0.0 3.0 0.00 0.00 0.00 65 1016.6
20230201012017 23 253 0.0 6.0 0.00 0.00 0.00 64 1016.6
20230201011519 23 138 0.0 6.0 0.00 0.00 0.00 64 1016.4
20230201011017 23 292 0.0 2.0 0.00 0.00 0.00 64 1016.5
20230201010521 24 0 1.0 2.0 0.00 0.00 0.00 63 1016.4
20230201010035 24 0 0.0 1.0 0.00 0.00 0.00 62 1016.4
20230201005517 24 0 0.0 2.0 0.00 0.00 0.00 62 1016.5
20230201005022 25 0 0.0 2.0 0.00 0.00 0.00 61 1016.4
20230201004522 25 56 0.0 2.0 0.00 0.00 0.00 61 1016.5
20230201004017 25 42 0.0 1.0 0.00 0.00 0.00 60 1016.5
20230201003518 26 0 0.0 1.0 0.00 0.00 0.00 58 1016.2
20230201003030 26 0 0.0 0.0 0.00 0.00 0.00 56 1016.4
20230201002518 27 0 0.0 1.0 0.00 0.00 0.00 56 1016.3
20230201002020 27 0 0.0 1.0 0.00 0.00 0.00 53 1016.4
20230201001520 28 0 0.0 1.0 0.00 0.00 0.00 53 1016.4
20230201001021 28 43 0.0 1.0 0.00 0.00 0.00 53 1016.2
20230201000521 29 0 0.0 1.0 0.00 0.00 0.00 54 1016.3
20230201000027 29 0 0.0 1.0 0.00 0.00 0.00 52 1016.2
20230131235520 30 0 0.0 2.0 0.00 0.00 0.00 52 1016.2
20230131235024 30 0 0.0 2.0 0.00 0.00 0.00 51 1016.2
20230131234519 30 66 0.0 1.0 0.00 0.00 0.00 51 1016.1
20230131234020 30 68 0.0 1.0 0.00 0.00 0.00 51 1016.0
20230131233522 31 69 0.0 1.0 0.00 0.00 0.00 49 1016.0
20230131233025 31 65 0.0 2.0 0.00 0.00 0.00 49 1016.1
20230131232520 31 0 0.0 2.0 0.00 0.00 0.00 50 1016.0
20230131232022 31 63 1.0 3.0 0.00 0.00 0.00 50 1016.0
20230131231522 31 88 1.0 3.0 0.00 0.00 0.00 50 1015.9
20230131231021 31 64 2.0 4.0 0.00 0.00 0.00 50 1015.8
20230131230517 32 64 2.0 4.0 0.00 0.00 0.00 49 1015.8
20230131230020 32 77 1.0 4.0 0.00 0.00 0.00 49 1015.8
20230131225520 33 0 1.0 4.0 0.00 0.00 0.00 48 1015.7
20230131225020 33 55 2.0 4.0 0.00 0.00 0.00 47 1015.8
20230131224524 34 67 1.0 4.0 0.00 0.00 0.00 44 1015.6
20230131224020 34 63 1.0 4.0 0.00 0.00 0.00 43 1015.5
20230131223520 34 90 1.0 4.0 0.00 0.00 0.00 42 1015.5
20230131223027 35 63 1.0 4.0 0.00 0.00 0.00 40 1015.5
20230131222519 36 44 1.0 4.0 0.00 0.00 0.00 40 1015.5
20230131222019 36 74 0.0 3.0 0.00 0.00 0.00 34 1015.6
20230131221528 37 235 1.0 2.0 0.00 0.00 0.00 34 1015.5
20230131221017 37 0 0.0 2.0 0.00 0.00 0.00 34 1015.4
20230131220517 36 0 0.0 2.0 0.00 0.00 0.00 35 1015.4
20230131220031 35 242 0.0 2.0 0.00 0.00 0.00 37 1015.3
20230131215517 35 275 1.0 2.0 0.00 0.00 0.00 36 1015.5
20230131215023 36 126 0.0 2.0 0.00 0.00 0.00 36 1015.4
20230131214524 35 167 0.0 2.0 0.00 0.00 0.00 38 1015.3
20230131214018 35 234 0.0 2.0 0.00 0.00 0.00 40 1015.3
20230131213520 34 0 0.0 4.0 0.00 0.00 0.00 37 1015.2
20230131213021 34 0 1.0 4.0 0.00 0.00 0.00 38 1015.2
20230131212523 33 201 1.0 4.0 0.00 0.00 0.00 38 1015.3
20230131212022 33 251 1.0 3.0 0.00 0.00 0.00 40 1015.3
20230131211532 33 273 0.0 3.0 0.00 0.00 0.00 39 1015.2
20230131211020 33 206 1.0 3.0 0.00 0.00 0.00 39 1015.3
20230131210520 33 221 1.0 3.0 0.00 0.00 0.00 39 1015.3
20230131210032 32 116 0.0 2.0 0.00 0.00 0.00 40 1015.3
20230131205518 32 203 1.0 4.0 0.00 0.00 0.00 42 1015.4
20230131205021 32 0 0.0 4.0 0.00 0.00 0.00 41 1015.3
20230131204528 31 245 2.0 4.0 0.00 0.00 0.00 40 1015.4
20230131204021 32 215 0.0 3.0 0.00 0.00 0.00 42 1015.4
20230131203521 32 283 1.0 2.0 0.00 0.00 0.00 41 1015.5
20230131203037 31 199 0.0 3.0 0.00 0.00 0.00 44 1015.5
20230131202522 31 137 1.0 3.0 0.00 0.00 0.00 43 1015.6
20230131202017 31 131 1.0 4.0 0.00 0.00 0.00 42 1015.6
20230131201520 31 0 0.0 6.0 0.00 0.00 0.00 45 1015.8
20230131201020 30 150 1.0 6.0 0.00 0.00 0.00 44 1015.8
20230131200521 30 123 2.0 4.0 0.00 0.00 0.00 43 1015.9
20230131200028 30 134 1.0 4.0 0.00 0.00 0.00 45 1015.9
20230131195519 30 113 0.0 4.0 0.00 0.00 0.00 45 1016.0
20230131195020 29 155 1.0 4.0 0.00 0.00 0.00 46 1016.1
20230131194520 29 160 2.0 4.0 0.00 0.00 0.00 43 1016.2
20230131194018 29 157 1.0 6.0 0.00 0.00 0.00 46 1016.3
20230131193519 28 131 1.0 6.0 0.00 0.00 0.00 48 1016.5
20230131193037 28 0 1.0 2.0 0.00 0.00 0.00 48 1016.6
20230131192520 27 150 1.0 3.0 0.00 0.00 0.00 49 1016.7
20230131192019 26 0 1.0 3.0 0.00 0.00 0.00 49 1016.8
20230131191521 26 73 2.0 3.0 0.00 0.00 0.00 50 1016.9
20230131191023 25 53 1.0 5.0 0.00 0.00 0.00 51 1017.1
20230131190524 25 127 1.0 5.0 0.00 0.00 0.00 52 1017.1
20230131190023 25 39 0.0 3.0 0.00 0.00 0.00 51 1017.3
20230131185518 25 105 0.0 3.0 0.00 0.00 0.00 54 1017.4
20230131185020 24 325 0.0 2.0 0.00 0.00 0.00 58 1017.5
20230131184520 23 267 1.0 2.0 0.00 0.00 0.00 57 1017.5
20230131184020 24 285 0.0 2.0 0.00 0.00 0.00 55 1017.5
20230131183520 23 290 1.0 3.0 0.00 0.00 0.00 56 1017.7
20230131183019 23 0 1.0 3.0 0.00 0.00 0.00 56 1017.7
20230131182517 23 142 0.0 3.0 0.00 0.00 0.00 56 1017.8
20230131182024 22 345 1.0 3.0 0.00 0.00 0.00 54 1017.7
20230131181526 22 85 0.0 3.0 0.00 0.00 0.00 56 1017.9
20230131181020 22 117 1.0 3.0 0.00 0.00 0.00 56 1017.9
20230131180521 22 347 1.0 2.0 0.00 0.00 0.00 55 1018.0
20230131180051 22 42 0.0 1.0 0.00 0.00 0.00 57 1018.2
20230131175518 21 0 0.0 3.0 0.00 0.00 0.00 56 1018.0
20230131175021 21 280 0.0 3.0 0.00 0.00 0.00 58 1018.2
20230131174524 21 77 1.0 3.0 0.00 0.00 0.00 56 1018.2
20230131174021 21 348 0.0 3.0 0.00 0.00 0.00 57 1018.3
20230131173519 20 0 0.0 3.0 0.00 0.00 0.00 58 1018.4
20230131173026 19 98 0.0 3.0 0.00 0.00 0.00 58 1018.3
20230131172519 19 98 1.0 2.0 0.00 0.00 0.00 59 1018.4
20230131172021 19 118 0.0 2.0 0.00 0.00 0.00 58 1018.2
20230131171518 18 86 0.0 4.0 0.00 0.00 0.00 59 1018.4
20230131171019 18 0 1.0 4.0 0.00 0.00 0.00 59 1018.3
20230131170517 18 119 2.0 7.0 0.00 0.00 0.00 59 1018.2
20230131170018 18 143 2.0 7.0 0.00 0.00 0.00 59 1018.2
20230131165517 18 140 0.0 3.0 0.00 0.00 0.00 61 1018.2
20230131165017 17 194 1.0 4.0 0.00 0.00 0.00 61 1018.1
20230131164520 16 180 2.0 4.0 0.00 0.00 0.00 61 1018.1
20230131164017 16 129 1.0 6.0 0.00 0.00 0.00 61 1018.1
20230131163517 16 140 2.0 6.0 0.00 0.00 0.00 60 1018.0
20230131163024 16 130 2.0 5.0 0.00 0.00 0.00 61 1017.9
20230131162517 16 0 0.0 3.0 0.00 0.00 0.00 61 1018.0
20230131162017 16 144 0.0 1.0 0.00 0.00 0.00 63 1017.9
20230131161522 15 155 0.0 2.0 0.00 0.00 0.00 64 1018.0
20230131161020 14 126 1.0 4.0 0.00 0.00 0.00 64 1018.1
20230131160522 13 168 0.0 4.0 0.00 0.00 0.00 66 1018.0
20230131160026 12 138 1.0 4.0 0.00 0.00 0.00 64 1018.1
20230131155521 12 123 1.0 4.0 0.00 0.00 0.00 64 1018.0
20230131155017 12 143 1.0 4.0 0.00 0.00 0.00 65 1018.1
20230131154523 12 157 1.0 4.0 0.00 0.00 0.00 65 1018.0
20230131154016 11 141 0.0 3.0 0.00 0.00 0.00 66 1017.9
20230131153516 11 158 1.0 3.0 0.00 0.00 0.00 66 1017.9
20230131153026 10 175 0.0 5.0 0.00 0.00 0.00 68 1018.2
20230131152520 9 166 0.0 5.0 0.00 0.00 0.00 69 1018.1
20230131152021 9 160 1.0 3.0 0.00 0.00 0.00 70 1018.2
20230131151521 8 0 1.0 3.0 0.00 0.00 0.00 71 1018.2
20230131151018 7 145 0.0 6.0 0.00 0.00 0.00 73 1018.0
20230131150517 6 186 0.0 6.0 0.00 0.00 0.00 74 1018.1
20230131150020 6 92 2.0 6.0 0.00 0.00 0.00 75 1018.4
20230131145522 5 129 0.0 4.0 0.00 0.00 0.00 78 1018.1
20230131145019 5 0 1.0 4.0 0.00 0.00 0.00 78 1017.8
20230131144526 4 215 0.0 3.0 0.00 0.00 0.00 79 1018.0
20230131144020 4 82 1.0 3.0 0.00 0.00 0.00 80 1018.4
20230131143520 3 125 0.0 2.0 0.00 0.00 0.00 82 1017.9
20230131143020 2 0 1.0 2.0 0.00 0.00 0.00 81 1018.2
20230131142517 2 234 0.0 2.0 0.00 0.00 0.00 81 1018.4
20230131142016 2 40 0.0 2.0 0.00 0.00 0.00 81 1018.3
20230131141523 1 215 0.0 2.0 0.00 0.00 0.00 82 1018.0
20230131141020 2 211 0.0 2.0 0.00 0.00 0.00 80 1018.4
20230131140520 2 47 0.0 2.0 0.00 0.00 0.00 81 1018.6
20230131140022 1 219 0.0 1.0 0.00 0.00 0.00 81 1018.3
20230131135517 1 0 0.0 1.0 0.00 0.00 0.00 80 1018.3
20230131135017 2 0 0.0 1.0 0.00 0.00 0.00 79 1018.4
20230131134526 2 222 0.0 0.0 0.00 0.00 0.00 80 1018.3
20230131134021 2 222 0.0 0.0 0.00 0.00 0.00 79 1018.3
20230131133519 2 0 0.0 0.0 0.00 0.00 0.00 79 1018.4
20230131133021 3 0 0.0 0.0 0.00 0.00 0.00 78 1018.3
20230131132516 3 0 0.0 0.0 0.00 0.00 0.00 78 1018.2
20230131132017 3 0 0.0 0.0 0.00 0.00 0.00 77 1018.2
20230131131523 4 0 0.0 0.0 0.00 0.00 0.00 77 1018.3
20230131131017 4 0 0.0 0.0 0.00 0.00 0.00 77 1018.3
20230131130517 4 0 0.0 0.0 0.00 0.00 0.00 77 1018.4
20230131130022 4 0 0.0 0.0 0.00 0.00 0.00 76 1018.3
20230131125523 4 0 0.0 0.0 0.00 0.00 0.00 76 1018.1
20230131125020 5 0 0.0 2.0 0.00 0.00 0.00 76 1018.1
20230131124524 5 320 1.0 4.0 0.00 0.00 0.00 77 1018.2
20230131124020 5 0 0.0 6.0 0.00 0.00 0.00 77 1017.9
20230131123520 5 146 1.0 6.0 0.00 0.00 0.00 77 1017.9
20230131123027 4 172 1.0 4.0 0.00 0.00 0.00 78 1017.9
20230131122517 4 197 1.0 4.0 0.00 0.00 0.00 78 1017.9
20230131122025 4 164 0.0 3.0 0.00 0.00 0.00 78 1018.0
20230131121523 4 202 1.0 3.0 0.00 0.00 0.00 78 1018.1
20230131121021 4 207 1.0 4.0 0.00 0.00 0.00 79 1018.1
20230131120521 4 222 1.0 4.0 0.00 0.00 0.00 79 1018.0
20230131120025 4 147 1.0 4.0 0.00 0.00 0.00 80 1017.8
20230131115519 4 156 1.0 4.0 0.00 0.00 0.00 80 1017.9
20230131115021 4 190 1.0 2.0 0.00 0.00 0.00 80 1018.2
20230131114524 4 226 0.0 2.0 0.00 0.00 0.00 80 1018.4
20230131114018 4 233 0.0 2.0 0.00 0.00 0.00 80 1018.4
20230131113519 4 142 0.0 2.0 0.00 0.00 0.00 80 1018.4
20230131113022 4 0 0.0 4.0 0.00 0.00 0.00 80 1018.4
20230131112516 4 0 0.0 4.0 0.00 0.00 0.00 81 1018.5
20230131112016 4 163 0.0 8.0 0.00 0.00 0.00 81 1018.5
20230131111523 5 186 2.0 8.0 0.00 0.00 0.00 82 1018.5
20230131111016 4 249 1.0 7.0 0.00 0.00 0.00 82 1018.6
20230131110516 4 0 0.0 2.0 0.00 0.00 0.00 82 1018.8
20230131110022 4 194 0.0 2.0 0.00 0.00 0.00 82 1018.8
20230131105523 4 145 0.0 1.0 0.00 0.00 0.00 82 1018.9
20230131105020 4 0 0.0 1.0 0.00 0.00 0.00 82 1019.0
20230131104525 4 220 0.0 1.0 0.00 0.00 0.00 81 1019.2
20230131104020 4 0 0.0 1.0 0.00 0.00 0.00 81 1019.3
20230131103519 4 0 0.0 1.0 0.00 0.00 0.00 81 1019.3
20230131103019 4 0 0.0 1.0 0.00 0.00 0.00 81 1019.3
20230131102523 4 234 0.0 1.0 0.00 0.00 0.00 81 1019.4
20230131102019 4 0 0.0 1.0 0.00 0.00 0.00 81 1019.4
20230131101524 4 0 0.0 1.0 0.00 0.00 0.00 81 1019.3
20230131101018 5 0 0.0 1.0 0.00 0.00 0.00 81 1019.2
20230131100518 5 157 0.0 1.0 0.00 0.00 0.00 81 1019.4
20230131100039 5 172 0.0 1.0 0.00 0.00 0.00 80 1019.3
20230131095518 5 0 0.0 1.0 0.00 0.00 0.00 80 1019.3
20230131095018 5 0 0.0 3.0 0.00 0.00 0.00 80 1019.4
20230131094524 5 238 0.0 4.0 0.00 0.00 0.00 80 1019.3
20230131094016 5 0 0.0 4.0 0.00 0.00 0.00 80 1019.3
20230131093519 5 164 0.0 2.0 0.00 0.00 0.00 80 1019.2
20230131093022 6 159 0.0 3.0 0.00 0.00 0.00 80 1019.4
20230131092519 6 142 1.0 3.0 0.00 0.00 0.00 80 1019.4
20230131092019 6 145 1.0 3.0 0.00 0.00 0.00 80 1019.4
20230131091526 6 161 1.0 2.0 0.00 0.00 0.00 80 1019.4
20230131091016 6 200 0.0 1.0 0.00 0.00 0.00 79 1019.6
20230131090519 6 154 0.0 2.0 0.00 0.00 0.00 79 1019.6
20230131090026 6 0 0.0 2.0 0.00 0.00 0.00 80 1019.5
20230131085518 6 148 0.0 2.0 0.00 0.00 0.00 79 1019.6
20230131085021 6 0 0.0 2.0 0.00 0.00 0.00 79 1019.6
20230131084522 6 0 0.0 2.0 0.00 0.00 0.00 79 1019.7
20230131084019 6 143 0.0 3.0 0.00 0.00 0.00 78 1019.8
20230131083515 6 148 0.0 3.0 0.00 0.00 0.00 78 1019.7
20230131083022 6 164 0.0 3.0 0.00 0.00 0.00 78 1019.5
20230131082520 6 154 0.0 2.0 0.00 0.00 0.00 78 1019.6
20230131082018 6 0 0.0 3.0 0.00 0.00 0.00 78 1019.6
20230131081526 6 0 0.0 4.0 0.00 0.00 0.00 78 1019.6
20230131081018 6 131 0.0 4.0 0.00 0.00 0.00 78 1019.6
20230131080518 6 208 0.0 2.0 0.00 0.00 0.00 78 1019.7
20230131080028 6 217 0.0 1.0 0.00 0.00 0.00 78 1019.8
20230131075521 6 153 0.0 1.0 0.00 0.00 0.00 78 1019.7
20230131075018 6 192 0.0 1.0 0.00 0.00 0.00 78 1019.8
20230131074527 6 173 0.0 2.0 0.00 0.00 0.00 79 1019.8
20230131074022 6 0 0.0 3.0 0.00 0.00 0.00 79 1019.8
20230131073521 6 0 1.0 3.0 0.00 0.00 0.00 79 1019.8
20230131073019 6 0 0.0 3.0 0.00 0.00 0.00 79 1020.0
20230131072519 5 136 0.0 4.0 0.00 0.00 0.00 79 1020.0
20230131072017 5 171 1.0 4.0 0.00 0.00 0.00 79 1020.1
20230131071522 5 0 0.0 3.0 0.00 0.00 0.00 79 1020.1
20230131071022 5 149 1.0 7.0 0.00 0.00 0.00 79 1020.1
20230131070522 5 134 1.0 7.0 0.00 0.00 0.00 79 1020.2
20230131070025 5 149 2.0 5.0 0.00 0.00 0.00 78 1020.2
20230131065522 6 128 1.0 4.0 0.00 0.00 0.00 78 1020.2
20230131065022 6 140 2.0 6.0 0.00 0.00 0.00 78 1020.3
20230131064525 6 137 2.0 6.0 0.00 0.00 0.00 77 1020.3
20230131064019 6 135 2.0 6.0 0.00 0.00 0.00 77 1020.4
20230131063518 6 171 1.0 6.0 0.00 0.00 0.00 77 1020.4
20230131063020 6 138 3.0 6.0 0.00 0.00 0.00 76 1020.4
20230131062518 6 152 2.0 11.0 0.00 0.00 0.00 75 1020.5
20230131062018 6 130 3.0 11.0 0.00 0.00 0.00 74 1020.5
20230131061519 6 149 4.0 11.0 0.00 0.00 0.00 72 1020.5
20230131061022 7 134 4.0 7.0 0.00 0.00 0.00 70 1020.6
20230131060520 7 131 3.0 7.0 0.00 0.00 0.00 69 1020.5
20230131060026 7 148 3.0 8.0 0.00 0.00 0.00 67 1020.4
20230131055519 7 146 2.0 8.0 0.00 0.00 0.00 66 1020.5
20230131055017 7 131 2.0 8.0 0.00 0.00 0.00 66 1020.3
20230131054523 7 123 2.0 5.0 0.00 0.00 0.00 65 1020.4
20230131054018 7 144 2.0 7.0 0.00 0.00 0.00 66 1020.5
20230131053519 7 157 2.0 7.0 0.00 0.00 0.00 67 1020.5
20230131053020 7 119 2.0 8.0 0.00 0.00 0.00 69 1020.3
20230131052519 7 148 3.0 8.0 0.00 0.00 0.00 70 1020.3
20230131052019 7 134 2.0 6.0 0.00 0.00 0.00 71 1020.4
20230131051519 7 142 2.0 6.0 0.00 0.00 0.00 74 1020.3
20230131051018 7 159 1.0 6.0 0.00 0.00 0.00 77 1020.6
20230131050518 7 199 0.0 4.0 0.00 0.00 0.00 77 1020.4
20230131050037 7 136 1.0 4.0 0.00 0.00 0.00 77 1020.1
20230131045518 7 0 1.0 4.0 0.00 0.00 0.00 76 1020.3
20230131045018 7 146 0.0 2.0 0.00 0.00 0.00 76 1020.4
20230131044528 7 157 0.0 4.0 0.00 0.00 0.00 75 1020.3
20230131044018 7 147 0.0 4.0 0.00 0.00 0.00 74 1020.3
20230131043517 7 156 1.0 4.0 0.00 0.00 0.00 73 1020.1
20230131043024 7 149 1.0 4.0 0.00 0.00 0.00 71 1020.2
20230131042523 7 136 1.0 3.0 0.00 0.00 0.00 69 1020.1
20230131042019 7 121 1.0 4.0 0.00 0.00 0.00 69 1020.1
20230131041526 7 137 1.0 4.0 0.00 0.00 0.00 68 1020.1
20230131041018 7 131 1.0 3.0 0.00 0.00 0.00 68 1020.1
20230131040517 7 151 1.0 3.0 0.00 0.00 0.00 68 1020.0
20230131040022 7 146 1.0 3.0 0.00 0.00 0.00 68 1020.0
20230131035519 7 153 1.0 2.0 0.00 0.00 0.00 68 1020.1
20230131035021 7 158 0.0 2.0 0.00 0.00 0.00 68 1019.9
20230131034521 7 139 1.0 2.0 0.00 0.00 0.00 68 1019.8
20230131034018 7 203 0.0 2.0 0.00 0.00 0.00 68 1020.0
20230131033521 7 150 0.0 2.0 0.00 0.00 0.00 67 1020.0
20230131033032 7 98 0.0 4.0 0.00 0.00 0.00 67 1019.9
20230131032518 7 0 1.0 6.0 0.00 0.00 0.00 67 1020.0
20230131032018 7 123 1.0 6.0 0.00 0.00 0.00 67 1020.0
20230131031519 7 140 1.0 5.0 0.00 0.00 0.00 68 1020.0
20230131031017 7 153 2.0 4.0 0.00 0.00 0.00 69 1019.9
20230131030520 7 151 1.0 3.0 0.00 0.00 0.00 72 1019.8
20230131030021 7 0 0.0 3.0 0.00 0.00 0.00 73 1019.8
20230131025518 7 134 0.0 3.0 0.00 0.00 0.00 75 1019.8
20230131025019 7 128 1.0 3.0 0.00 0.00 0.00 74 1019.7
20230131024527 6 126 1.0 3.0 0.00 0.00 0.00 75 1019.6
20230131024021 6 0 0.0 1.0 0.00 0.00 0.00 75 1019.7